SLS DEB, 55905

Orbit data source: Space-Track

SLS DEB, 55905 is space debris in LEO originally from a launch on Wed, 16 Nov 2022 UTC launched from the Air Force Eastern Test Range (AFETR). Debris objects in space refer to the collection of defunct objects orbiting the Earth. Examples of debris include non-operational satellites, rocket bodies, and fragments generated from explosions, collisions, or faulty payload assembly.

Loading next visibility...
Identifier
55905, 2022-156E
Orbit
LEO
Country
Flag of USUS
Related business
Manufacturer
ULA Decatur
Mission
Spacecraft
Bus & Motor
Unknown
Mass
Unknown
Launch date (UTC)
2022-11-16 (4 years ago)
Launch vehicle
Unknown
Launch site
Air Force Eastern Test Range (AFETR)
Object type
Payload
Rocket body
Debris
Shape & HBR
Unknown shape, 0.3 m
Radar Cross Section
Medium (>0.1 m² and <1 m²)

Expand to show TLE details & history
Last TLE update: 1 week ago

TLE from 1 week ago
0 SLS DEB
1 55905U 22156E   26152.20555838  .00252962  00000-0  15108-1 0  9994
2 55905  30.4727 220.4158 0912462 268.4262  81.1757 13.58832007151996
Epoch: 2026-06-01T04:56Z
TLE epoch observation values (Epoch: 2026-06-01T04:56:00.244Z)
Latitude
0.00003°
Longitude
-103.28138°
Altitude
995.913 km
Speed
7.377 km/s
True Right ascension
14h 41m 39s
True Declination
0° 00' 00"
Sunlit
Object was in full shadow at epoch
Visualization orbit readout
Latitude
Unknown
Longitude
Unknown
Altitude
Unknown
Speed
Unknown
Apparent Right ascension
Unknown
Apparent Declination
Unknown
Sunlit
N/A
Visualization observer readout
Local Sidereal Time
13:02:11
Azimuth
Unknown
Elevation
Unknown
Doppler factor
Unknown
Orbital elements
Apogee altitude
1,720.847 km
Perigee altitude
366.43 km
Semi-major axis
7,421.776 km
Eccentricity
0.09125
Inclination
30.4727°
RAAN
220.4158°
Arg. of periapsis
268.4262°
True anomaly
91.63337°
Mean anomaly
81.1757°
Eccentric anomaly
86.39337°
Mean motion
3.39454 °/min
Orbital period
106.05 mins
BSTAR
0.015108
Loading maneuver chart data...
Computing Atmospheric mass density...
Loading historical data...
Loading historical data...
Loading historical data...
Loading historical data...
Loading historical data...
Loading historical data...
Loading historical data...

Documentation

Showing up to 5 results
|